| time (UTC) | temp F | wind direction | speed knots | gust knots | rain 1hr in | rain 24hr in | rain mn in | humidity % | barometer mb |
| 20260502203048 | 72 | 69 | 2.6 | 12.2 | 0.00 | 1.20 | 0.00 | 45 | 1018.7 |
| 20260502201549 | 73 | 11 | 2.6 | 11.3 | 0.00 | 1.20 | 0.00 | 46 | 1018.9 |
| 20260502200104 | 73 | 49 | 0.0 | 7.8 | 0.00 | 1.20 | 0.00 | 49 | 1019.0 |
| 20260502194550 | 72 | 77 | 2.6 | 6.1 | 0.00 | 1.30 | 0.00 | 50 | 1019.3 |
| 20260502193053 | 72 | 328 | 1.7 | 7.8 | 0.00 | 1.30 | 0.00 | 48 | 1019.3 |
| 20260502191558 | 71 | 349 | 2.6 | 9.6 | 0.00 | 1.30 | 0.00 | 46 | 1019.4 |
| 20260502190058 | 71 | 61 | 3.5 | 7.0 | 0.00 | 1.30 | 0.00 | 48 | 1019.6 |
| 20260502184551 | 71 | 88 | 1.7 | 11.3 | 0.00 | 1.38 | 0.00 | 49 | 1019.6 |
| 20260502183052 | 69 | 44 | 3.5 | 13.0 | 0.00 | 1.38 | 0.00 | 48 | 1019.9 |
| 20260502181552 | 70 | 41 | 3.5 | 10.4 | 0.00 | 1.38 | 0.00 | 53 | 1020.1 |
| 20260502163055 | 67 | 311 | 1.7 | 8.7 | 0.00 | 1.50 | 0.00 | 68 | 1020.7 |
| 20260502161549 | 66 | 68 | 3.5 | 7.8 | 0.00 | 1.50 | 0.00 | 64 | 1020.7 |
| 20260502151612 | 62 | 35 | 3.5 | 7.0 | 0.00 | 1.51 | 0.00 | 76 | 1020.3 |
| 20260502130104 | 53 | 0 | 0.0 | 4.3 | 0.00 | 1.62 | 0.00 | 98 | 1018.6 |
| 20260502123054 | 52 | 20 | 0.9 | 6.1 | 0.00 | 1.79 | 0.00 | 98 | 1018.3 |
| 20260502121557 | 52 | 19 | 0.9 | 3.5 | 0.00 | 1.79 | 0.00 | 98 | 1018.3 |
| 20260502114553 | 51 | 0 | 0.0 | 0.9 | 0.00 | 1.93 | 0.00 | 98 | 1017.8 |
| 20260502113057 | 51 | 0 | 0.0 | 0.9 | 0.00 | 1.93 | 0.00 | 98 | 1017.5 |
| 20260502111553 | 51 | 75 | 0.0 | 1.7 | 0.00 | 1.93 | 0.00 | 98 | 1017.2 |
| 20260502110104 | 51 | 355 | 0.0 | 2.6 | 0.00 | 1.93 | 0.00 | 98 | 1017.0 |
| 20260502104557 | 51 | 0 | 0.0 | 2.6 | 0.00 | 1.96 | 0.00 | 98 | 1017.0 |
| 20260502103106 | 51 | 0 | 0.0 | 0.9 | 0.00 | 1.96 | 0.00 | 98 | 1016.8 |
| 20260502101613 | 51 | 9 | 0.0 | 1.7 | 0.00 | 1.96 | 0.00 | 98 | 1016.8 |
| 20260502090113 | 51 | 0 | 0.0 | 0.9 | 0.00 | 1.97 | 0.00 | 98 | 1016.5 |
| 20260502070109 | 50 | 58 | 0.0 | 1.7 | 0.00 | 2.06 | 0.00 | 97 | 1016.4 |
| 20260502064610 | 51 | 0 | 0.0 | 3.5 | 0.00 | 2.07 | 0.00 | 97 | 1016.3 |
| 20260502063054 | 50 | 359 | 1.7 | 3.5 | 0.00 | 2.07 | 0.00 | 97 | 1016.1 |
| 20260502061553 | 51 | 0 | 0.0 | 3.5 | 0.00 | 2.07 | 0.00 | 97 | 1016.4 |
| 20260502060058 | 50 | 0 | 0.0 | 2.6 | 0.00 | 2.07 | 0.00 | 97 | 1016.6 |
| 20260502054600 | 50 | 0 | 0.9 | 4.3 | 0.01 | 2.08 | 0.00 | 97 | 1016.6 |
| 20260502053052 | 50 | 26 | 1.7 | 7.0 | 0.02 | 2.08 | 0.00 | 97 | 1016.9 |
| 20260502051553 | 50 | 0 | 0.9 | 5.2 | 0.04 | 2.08 | 0.00 | 97 | 1017.2 |
| 20260502050057 | 50 | 340 | 0.0 | 2.6 | 0.06 | 2.08 | 0.00 | 97 | 1016.8 |
| 20260502044559 | 50 | 60 | 1.7 | 7.8 | 0.08 | 2.08 | 2.08 | 97 | 1016.3 |
| 20260502043054 | 50 | 72 | 1.7 | 5.2 | 0.08 | 2.07 | 2.06 | 97 | 1017.4 |
| 20260502041559 | 50 | 46 | 1.7 | 5.2 | 0.10 | 2.06 | 2.05 | 97 | 1017.5 |
| 20260502040057 | 50 | 347 | 1.7 | 3.5 | 0.09 | 2.04 | 2.03 | 97 | 1016.7 |
| 20260502034554 | 50 | 0 | 0.0 | 5.2 | 0.07 | 2.01 | 2.00 | 97 | 1017.0 |
| 20260502033101 | 50 | 58 | 0.0 | 2.6 | 0.06 | 1.99 | 1.98 | 97 | 1016.9 |
| 20260502031557 | 50 | 41 | 0.9 | 7.0 | 0.03 | 1.96 | 1.95 | 97 | 1016.9 |
| 20260502030057 | 50 | 25 | 2.6 | 6.1 | 0.03 | 1.95 | 1.94 | 97 | 1016.4 |
| 20260502024605 | 50 | 0 | 0.9 | 9.6 | 0.03 | 1.94 | 1.93 | 97 | 1016.3 |
| 20260502023107 | 50 | 31 | 1.7 | 7.8 | 0.02 | 1.93 | 1.92 | 97 | 1015.7 |
| 20260502021553 | 51 | 41 | 3.5 | 7.8 | 0.02 | 1.93 | 1.92 | 97 | 1015.4 |
| 20260502020055 | 51 | 354 | 1.7 | 7.8 | 0.01 | 1.92 | 1.91 | 97 | 1014.9 |
| 20260502014604 | 52 | 20 | 0.9 | 5.2 | 0.00 | 1.91 | 1.90 | 97 | 1014.6 |
| 20260502013057 | 52 | 25 | 2.6 | 7.0 | 0.01 | 1.91 | 1.90 | 97 | 1014.4 |
| 20260502011555 | 52 | 11 | 3.5 | 10.4 | 0.03 | 1.91 | 1.90 | 97 | 1013.7 |
| 20260502010058 | 53 | 57 | 2.6 | 8.7 | 0.06 | 1.91 | 1.90 | 97 | 1013.8 |
| 20260502004559 | 53 | 8 | 2.6 | 7.0 | 0.12 | 1.91 | 1.90 | 97 | 1013.7 |
| 20260502003059 | 53 | 45 | 0.9 | 5.2 | 0.18 | 1.90 | 1.89 | 97 | 1014.3 |
| 20260502001629 | 53 | 113 | 0.9 | 6.1 | 0.23 | 1.88 | 1.87 | 97 | 1014.2 |
| 20260502000115 | 53 | 0 | 0.0 | 2.6 | 0.28 | 1.85 | 1.84 | 97 | 1014.6 |
| 20260501234622 | 52 | 60 | 0.9 | 4.3 | 0.30 | 1.79 | 1.78 | 97 | 1015.0 |
| 20260501233050 | 53 | 0 | 0.0 | 1.7 | 0.30 | 1.72 | 1.71 | 97 | 1014.8 |
| 20260501231554 | 53 | 0 | 0.0 | 1.7 | 0.29 | 1.64 | 1.63 | 97 | 1015.4 |
| 20260501230056 | 53 | 50 | 0.0 | 3.5 | 0.28 | 1.57 | 1.56 | 97 | 1015.2 |
| 20260501224607 | 53 | 0 | 0.0 | 4.3 | 0.28 | 1.49 | 1.48 | 97 | 1014.4 |
| 20260501223051 | 53 | 37 | 0.9 | 4.3 | 0.31 | 1.42 | 1.41 | 97 | 1013.6 |
| 20260501221552 | 53 | 38 | 1.7 | 2.6 | 0.27 | 1.35 | 1.34 | 97 | 1013.2 |
| 20260501220053 | 53 | 66 | 0.0 | 1.7 | 0.25 | 1.29 | 1.28 | 97 | 1013.5 |
| 20260501214552 | 53 | 53 | 0.9 | 6.1 | 0.24 | 1.38 | 1.20 | 97 | 1012.4 |
| 20260501213056 | 53 | 51 | 0.0 | 6.1 | 0.18 | 1.28 | 1.10 | 97 | 1012.5 |
| 20260501211551 | 53 | 325 | 0.9 | 5.2 | 0.17 | 1.25 | 1.07 | 97 | 1011.7 |
| 20260501210052 | 53 | 52 | 0.9 | 7.8 | 0.14 | 1.21 | 1.03 | 97 | 1012.3 |
| 20260501204553 | 53 | 70 | 1.7 | 6.1 | 0.09 | 1.19 | 0.95 | 97 | 1012.7 |